GFSNGP_925_rhum_051.txt.gz
RH
53 53 66 70 62 59 81 59 70 38 30 28 25 29 35 37 43 52 53 53 52 52 49 51 54 58 64 70 71 72 72 75 78 80 87 95 99 99 95 92 94 94 94 93
68 53 58 78 58 54 59 58 50 45 45 29 26 32 38 42 53 55 56 53 52 52 52 54 59 66 69 75 78 78 78 79 82 81 91 99 99 99 100 100 99 99 98 99
70 58 61 67 55 54 53 50 49 56 40 32 34 37 39 50 55 57 55 55 54 54 57 62 68 71 74 78 86 94 98 95 89 94 99 100 100 100 99 100 99 100 100 99
77 75 80 50 47 43 45 42 42 40 35 32 35 38 44 57 55 55 57 56 55 56 61 68 74 75 84 94 99 99 99 100 100 100 99 100 100 100 100 100 99 99 99 98
70 59 44 34 49 55 58 54 40 43 39 36 39 53 56 57 54 55 56 55 58 62 70 77 85 95 99 100 99 99 99 99 99 99 98 99 99 99 100 99 98 98 96 95
68 76 65 54 48 42 45 68 40 40 43 49 54 63 69 63 59 60 60 61 62 69 80 84 97 99 99 100 99 99 99 100 100 100 99 100 100 100 100 97 96 89 89 92
68 72 52 33 51 47 78 82 53 51 53 55 60 61 65 61 63 63 62 66 71 85 84 95 99 99 99 99 99 100 100 100 99 99 99 99 98 94 91 82 68 63 67 69
62 77 76 37 55 62 58 53 51 52 57 64 63 62 63 63 67 68 68 78 86 87 92 99 100 98 99 99 99 100 100 99 96 91 84 74 60 49 41 41 42 43 44 49
49 50 36 39 46 50 54 55 54 55 58 61 61 61 64 70 67 66 68 78 85 85 95 97 100 98 99 99 98 95 81 56 44 42 43 46 46 43 36 34 32 30 29 32
51 42 40 40 45 52 53 55 54 55 58 59 61 57 63 68 67 64 67 76 78 77 82 90 99 98 92 88 78 57 41 38 38 38 38 38 39 39 31 28 26 26 29 33
52 46 50 44 43 46 51 53 56 57 59 60 58 58 60 66 67 64 67 72 79 74 78 82 86 82 76 70 48 40 40 40 39 37 35 39 48 44 37 48 42 36 44 44
54 40 42 42 47 54 56 58 56 59 60 59 58 59 58 62 67 66 67 66 73 73 76 73 69 70 71 51 43 42 39 39 40 44 47 47 50 60 57 70 65 47 55 58
44 47 51 53 56 57 58 58 55 58 60 60 56 59 58 60 66 70 70 66 69 73 74 65 63 64 55 46 45 42 41 43 45 47 47 45 42 38 44 60 40 34 35 42
51 56 62 60 60 59 57 57 60 59 59 60 58 58 59 61 65 72 72 67 68 71 73 65 59 53 48 47 46 44 44 44 45 44 40 38 30 30 28 25 24 29 38 38
57 57 59 58 58 57 60 61 68 65 57 57 60 60 60 58 62 69 68 68 66 68 70 63 52 47 47 48 46 46 46 44 41 38 33 32 32 29 29 32 33 34 37 42
58 62 63 68 68 69 68 68 68 67 63 61 58 58 58 58 56 58 64 63 63 66 64 59 51 45 46 45 46 46 47 42 39 34 34 33 31 32 32 34 35 36 38 41
70 76 84 91 82 73 73 70 70 70 68 68 63 59 58 57 55 54 58 59 60 63 65 63 57 44 43 43 45 47 44 43 43 35 34 31 31 32 33 36 38 40 41 46
69 67 67 71 82 86 84 83 77 68 69 70 69 62 60 56 54 53 54 56 56 56 58 60 53 44 44 44 46 46 42 46 46 33 30 31 34 36 37 40 40 43 47 52
69 76 83 84 88 90 92 81 60 58 63 77 69 66 62 59 55 52 52 55 55 54 52 50 46 45 62 46 46 45 42 44 41 31 28 35 40 45 41 42 44 47 54 57
77 92 93 85 82 90 98 93 81 63 68 67 67 63 61 60 58 55 56 57 55 52 47 45 46 83 85 47 46 43 42 42 35 29 30 34 42 37 39 44 55 56 56 58
71 72 78 69 64 67 85 94 90 75 67 62 64 63 62 60 58 57 60 58 61 58 55 52 64 99 90 50 54 44 42 40 33 29 30 36 40 43 42 45 53 58 61 62
71 70 70 70 67 66 69 69 71 87 82 76 71 64 61 64 63 62 60 61 63 65 98 99 98 98 86 51 56 46 42 38 31 28 29 30 32 35 41 55 65 70 71 71
66 74 76 72 72 72 70 73 71 74 92 96 91 84 79 75 69 80 92 93 98 99 99 98 98 97 70 67 52 46 40 35 30 27 28 29 31 37 48 62 68 70 70 76
64 74 78 82 78 68 74 85 88 76 72 81 91 95 95 95 96 96 98 97 99 99 98 98 98 97 83 74 53 45 39 34 29 27 27 29 30 36 47 52 57 58 62 70
77 82 86 80 61 55 69 90 87 82 76 69 69 76 86 93 98 97 97 98 100 100 99 98 98 97 96 86 74 50 40 35 30 27 28 28 29 38 45 52 54 55 62 71
66 58 62 71 68 65 74 83 86 87 89 80 72 71 71 77 85 91 98 100 97 98 98 98 96 97 98 96 72 54 42 37 32 29 28 26 27 37 42 47 51 56 64 73
68 68 60 56 62 66 79 84 86 83 88 90 87 76 75 74 80 86 84 94 98 94 94 97 97 97 96 93 74 61 46 41 34 29 28 27 30 40 45 49 52 59 67 80

GFSNGP_925_rhum_054.txt.gz
RH
60 57 83 79 68 65 81 73 78 50 39 36 36 36 39 43 44 56 60 56 57 58 57 54 58 62 68 74 76 75 77 80 80 87 94 98 99 100 100 100 99 96 92 92
72 54 58 82 67 62 66 66 65 58 54 36 32 36 42 47 56 56 59 55 55 56 54 60 67 70 73 77 83 86 87 84 88 94 99 99 99 100 100 99 99 98 100 99
85 62 65 80 65 64 59 58 60 69 49 36 41 42 44 53 59 59 58 57 57 59 64 67 70 72 77 83 93 98 97 97 99 99 99 99 100 99 100 100 99 99 99 99
92 81 94 54 48 48 54 51 51 46 44 36 36 45 50 62 58 62 59 58 59 62 65 72 76 87 89 97 98 99 99 99 99 99 99 100 100 100 100 98 95 96 100 100
90 89 60 44 53 57 56 58 42 48 44 38 42 55 61 62 59 63 61 60 62 65 74 78 87 91 97 99 99 99 99 99 99 99 99 99 99 100 100 100 99 99 93 83
81 73 86 66 49 42 45 81 42 44 44 47 61 79 90 69 65 65 61 61 65 74 79 86 91 94 99 100 99 100 100 100 100 99 99 99 99 100 100 87 78 80 87 82
66 80 65 43 53 47 82 83 60 54 62 60 68 76 76 68 68 64 64 66 74 80 83 90 92 93 99 99 100 100 99 96 99 100 99 100 94 71 62 59 60 68 71 70
68 90 87 50 61 73 72 59 58 63 65 71 68 70 71 68 73 70 73 82 86 86 89 92 96 98 99 99 99 99 99 98 96 91 77 56 48 45 43 42 42 45 45 44
58 68 46 40 51 60 57 64 61 64 62 64 67 70 71 75 75 74 75 83 86 86 91 98 97 95 99 98 98 95 75 57 48 46 48 47 44 39 35 33 31 29 31 34
52 47 46 44 47 61 60 61 60 62 60 61 61 60 70 74 75 75 73 83 83 86 87 90 95 94 90 87 86 78 45 38 38 38 39 38 36 33 28 28 27 28 32 37
61 53 50 50 48 60 62 63 64 62 62 62 64 64 68 74 78 72 72 78 78 83 82 89 96 94 94 86 73 44 38 38 39 37 34 35 38 44 41 37 39 38 42 46
69 52 53 53 57 56 62 64 61 60 62 61 65 66 66 73 73 70 71 78 80 75 79 83 90 87 79 70 47 40 40 39 37 40 44 48 50 50 45 36 27 25 31 36
58 59 64 65 64 59 62 62 58 60 62 69 64 64 63 69 70 70 69 71 81 78 77 78 75 72 73 62 43 42 38 38 41 44 46 46 43 42 48 48 40 30 29 30
58 61 67 65 73 66 59 59 62 63 62 62 63 60 62 66 67 73 73 71 68 74 75 73 67 66 66 54 44 42 40 41 41 43 45 42 37 30 28 25 25 28 32 35
62 63 66 66 61 59 62 66 72 77 72 67 62 65 64 67 70 74 74 72 67 72 74 70 63 62 58 48 44 44 42 42 42 40 38 32 28 27 25 25 28 32 34 36
70 67 65 68 69 71 72 74 78 77 74 71 69 64 62 61 61 63 71 72 69 73 73 72 64 57 50 46 44 44 43 42 38 37 34 29 28 26 27 28 31 33 36 39
79 81 82 94 87 76 81 82 82 82 82 82 77 66 62 60 60 59 61 69 68 68 69 70 67 54 47 45 44 43 43 44 40 38 32 32 28 28 28 30 33 36 39 41
70 70 72 79 88 90 87 84 86 74 70 68 76 72 64 63 62 58 57 62 62 63 65 67 66 57 47 45 45 44 45 43 44 41 33 30 28 28 30 32 35 37 40 44
71 80 83 85 89 89 89 91 82 69 64 69 78 72 67 63 60 56 55 58 59 61 60 62 63 59 48 46 47 46 45 44 44 44 33 30 33 35 33 34 35 38 43 50
89 91 87 77 84 91 96 98 97 88 82 78 70 66 65 63 61 58 56 56 55 56 55 56 57 55 46 52 92 52 47 45 42 41 32 28 29 32 36 35 40 41 45 48
75 73 73 71 68 71 73 71 77 85 77 76 69 63 65 67 62 58 60 64 59 58 54 52 52 51 55 94 98 79 50 46 42 37 32 31 32 34 33 34 34 39 46 53
81 78 72 70 70 69 70 71 69 71 91 92 85 76 66 63 63 61 61 63 59 61 59 57 60 58 94 99 98 96 53 45 40 37 32 28 28 30 30 30 33 44 54 60
76 76 74 75 76 74 73 82 81 72 74 83 95 97 93 88 84 73 81 76 83 88 79 95 99 99 99 98 97 97 61 44 40 36 31 26 26 25 26 29 38 51 54 54
63 74 79 80 68 61 74 82 87 82 74 69 70 80 90 97 94 94 96 99 99 100 100 98 98 99 99 98 98 97 78 45 40 36 31 27 25 25 27 27 38 45 50 49
71 73 77 73 63 61 64 78 82 85 86 78 72 70 70 79 92 94 96 98 99 100 100 100 100 100 100 96 96 97 83 56 40 36 31 28 25 26 24 29 40 46 50 50
66 62 62 64 61 59 65 76 85 82 86 89 84 80 74 72 76 81 88 98 98 99 100 98 100 100 100 98 97 97 97 76 44 38 34 29 26 25 24 32 41 46 47 52
60 62 61 58 54 55 62 79 82 79 82 86 93 88 83 74 74 82 87 85 95 98 97 98 98 99 98 97 97 97 92 63 46 39 35 30 26 25 26 34 43 45 48 58

GFSNGP_925_rhum_057.txt.gz
RH
67 75 80 79 72 72 78 66 74 56 49 39 42 38 36 51 57 66 65 62 63 63 63 62 68 73 77 79 82 82 82 85 90 94 98 98 99 99 99 99 100 100 100 98
64 62 72 85 71 71 73 65 66 66 67 39 35 35 52 52 64 67 66 61 60 61 62 74 74 76 79 86 87 88 89 93 95 98 99 99 99 100 99 100 100 100 100 99
87 65 70 75 70 69 67 66 61 76 51 40 43 48 54 70 67 68 65 62 63 64 72 75 75 79 86 90 93 96 95 98 99 99 99 100 100 99 100 100 100 98 98 99
94 83 88 50 52 56 58 57 62 57 52 47 44 50 58 61 71 69 64 62 65 71 76 81 83 86 89 92 99 99 99 100 99 99 99 100 99 100 100 100 100 100 98 98
93 95 60 54 59 58 68 62 54 56 49 44 58 62 73 63 63 67 65 65 68 73 80 86 87 88 92 99 100 99 99 100 99 99 99 100 100 100 100 100 94 77 77 75
86 84 89 62 48 44 50 83 48 49 50 49 66 73 81 72 68 68 65 68 77 80 84 88 92 95 99 100 100 100 100 98 98 96 97 98 100 99 72 76 84 86 81 75
76 83 66 49 50 49 83 70 55 54 57 68 74 73 78 73 71 68 69 76 78 82 87 92 90 92 99 100 100 99 98 99 99 98 99 98 73 58 58 66 72 72 68 62
74 90 92 54 61 74 66 60 64 68 69 73 78 79 77 75 75 74 81 86 84 88 91 91 91 91 100 100 100 98 96 99 98 98 85 58 56 54 53 48 47 48 43 41
70 74 50 56 56 62 62 62 62 66 68 70 75 75 76 77 76 74 82 88 87 91 93 94 93 91 99 99 100 99 98 93 71 57 51 46 42 39 38 37 33 31 33 35
55 48 49 48 58 66 62 62 60 60 64 65 68 73 76 81 78 74 82 89 87 91 93 95 93 92 88 94 96 90 66 49 44 44 45 43 40 33 31 28 28 29 33 38
66 58 54 52 59 69 67 66 66 65 64 64 64 66 70 77 79 75 81 87 87 91 90 92 95 93 88 86 87 80 46 39 38 39 39 34 32 32 31 30 32 32 36 40
77 59 56 57 56 68 71 71 69 65 63 62 64 70 66 74 76 76 80 86 88 88 89 89 95 94 94 92 87 68 41 38 39 37 36 43 43 49 44 38 28 23 27 30
61 64 70 74 70 63 71 69 63 62 62 67 69 69 67 73 74 76 76 83 86 85 83 84 93 97 91 86 76 48 40 39 38 38 44 49 52 52 48 51 43 34 30 32
68 70 71 67 75 69 68 65 64 66 68 67 67 66 67 70 71 78 79 77 78 79 78 80 84 87 83 77 65 44 42 38 36 41 44 46 45 38 31 27 24 22 27 38
73 68 72 73 69 67 69 70 72 79 80 77 68 70 69 74 75 77 75 74 74 77 80 80 80 78 73 73 64 45 42 40 39 39 42 43 38 29 26 24 24 26 28 30
74 75 73 71 73 74 74 76 79 84 84 83 81 75 68 66 67 66 72 77 76 80 76 79 77 73 67 67 60 46 44 41 42 40 40 37 31 27 25 25 26 28 30 33
81 82 81 94 85 80 83 86 87 90 90 87 82 77 77 69 64 63 62 75 76 73 71 71 75 71 66 62 56 46 45 44 44 40 37 35 30 26 25 26 27 29 30 32
76 78 77 76 84 90 89 85 88 72 65 66 68 76 82 75 72 63 60 62 74 74 72 70 71 72 66 58 51 46 45 45 50 44 37 35 32 27 26 27 29 30 30 33
75 82 84 85 88 86 87 92 92 88 76 77 76 80 77 72 67 63 59 63 70 72 67 64 66 69 66 56 50 46 46 46 47 48 41 36 32 30 28 30 30 30 31 35
88 86 76 75 83 88 93 94 94 96 92 91 82 74 71 67 64 62 60 62 64 72 58 56 60 65 65 56 50 48 66 92 77 46 44 38 32 29 30 32 34 32 33 37
74 74 76 78 82 86 82 70 69 75 92 86 75 68 64 62 63 62 63 68 62 61 60 59 58 62 63 57 54 53 99 98 96 55 44 40 33 30 30 30 30 29 28 34
89 89 80 73 73 79 78 76 72 72 80 90 95 93 87 76 70 65 63 63 60 60 60 59 58 59 59 56 66 89 99 98 97 66 42 36 33 30 29 29 29 24 25 39
98 97 81 75 78 77 78 80 86 81 74 74 82 87 95 97 95 90 87 89 90 84 89 75 65 67 95 95 94 99 98 98 97 89 50 37 33 28 26 25 24 24 27 41
84 87 78 75 66 55 62 72 87 86 84 75 72 73 78 86 86 96 95 96 98 100 100 99 99 99 99 99 99 98 98 97 97 96 50 38 33 28 26 25 25 23 31 40
79 78 74 71 62 59 60 70 75 76 79 83 79 76 74 74 81 81 87 96 97 99 99 100 99 99 100 99 98 98 98 97 97 96 90 40 34 29 26 26 23 22 32 41
71 63 61 61 55 55 57 70 78 77 80 80 80 86 84 75 74 80 84 86 98 98 100 97 99 100 99 99 98 98 97 98 97 95 53 39 34 30 28 26 21 24 36 42
68 66 61 57 52 52 54 69 78 70 75 76 84 86 81 78 76 77 84 89 94 99 100 100 99 100 100 100 98 98 97 97 98 72 49 41 37 33 28 25 24 29 38 41

GFSNGP_925_rhum_060.txt.gz
RH
69 74 74 74 77 78 93 77 82 63 56 37 42 41 39 36 55 70 69 66 66 66 68 68 73 78 80 81 80 81 83 86 92 96 97 99 100 100 100 100 100 99 99 98
60 65 68 85 71 74 69 68 64 62 65 51 38 37 41 47 66 69 67 65 66 65 67 76 79 82 85 86 88 88 89 92 95 96 98 100 100 100 99 99 98 99 99 99
80 70 65 73 68 69 71 69 60 72 50 43 44 41 50 61 69 70 69 66 65 66 71 77 79 82 85 87 89 90 92 95 95 98 100 100 100 99 99 98 99 99 97 99
94 79 84 54 50 57 57 53 65 59 52 48 46 45 53 67 73 74 70 65 66 71 77 78 81 85 87 88 90 92 99 98 99 100 100 100 99 99 99 98 97 98 91 81
93 94 67 53 60 65 68 59 54 60 58 51 49 65 68 63 67 72 67 66 68 69 76 83 86 88 90 96 98 99 100 100 100 100 100 100 99 98 100 87 79 74 73 73
91 88 92 53 53 47 54 82 54 55 56 52 72 79 76 70 67 71 67 68 75 77 82 87 90 92 95 100 100 100 100 99 97 99 99 100 99 99 88 74 76 73 69 64
84 85 76 50 47 51 78 63 59 55 55 58 75 64 69 75 71 69 72 76 78 81 87 91 91 93 99 100 100 99 99 96 96 94 92 97 67 69 71 74 75 70 59 55
79 92 92 47 62 72 63 63 63 66 68 73 79 84 79 77 77 78 81 84 84 88 93 92 91 96 100 100 99 97 98 95 97 98 99 61 54 55 54 52 51 49 43 37
73 72 51 52 56 57 66 62 60 63 67 70 76 77 79 81 80 80 84 88 87 90 94 91 91 92 100 100 100 96 95 99 98 99 68 56 50 47 48 45 41 35 35 34
60 51 52 49 53 65 64 61 60 60 66 66 67 71 73 76 79 77 83 88 90 91 93 96 93 91 91 97 94 98 98 98 86 65 54 50 45 40 37 33 30 29 31 35
69 61 59 54 56 69 66 64 65 64 65 66 64 68 71 76 78 75 79 86 90 93 93 94 96 92 90 89 91 91 89 63 50 46 48 43 38 33 30 30 31 29 30 31
73 58 56 54 51 65 75 72 73 71 67 64 65 69 68 74 75 78 81 86 91 92 92 93 95 92 89 86 86 88 75 50 41 40 43 38 38 46 43 38 27 23 24 26
57 59 61 69 68 69 75 75 68 68 63 64 67 71 69 74 75 78 83 86 89 90 88 89 94 94 92 90 88 89 80 47 39 40 39 39 47 46 47 48 52 43 33 31
62 74 73 70 72 70 71 69 66 69 71 71 70 68 70 74 72 79 84 82 84 84 85 85 89 93 96 94 93 90 80 49 39 39 37 42 48 48 47 41 31 26 23 40
71 69 69 79 76 75 73 72 73 78 81 81 75 74 73 77 78 75 77 78 80 83 84 85 86 85 84 89 90 89 77 47 42 39 39 42 46 46 39 30 26 23 23 25
74 74 75 77 78 77 76 78 80 83 85 86 87 84 81 78 71 68 68 79 85 92 85 84 83 80 79 82 85 81 69 48 43 40 41 45 46 42 32 27 25 24 25 25
83 84 82 92 83 82 82 87 88 91 92 88 78 71 73 81 80 72 65 67 81 79 75 76 76 78 78 79 77 74 69 51 44 45 44 42 40 36 29 26 25 26 25 26
78 83 80 77 84 86 88 87 89 80 73 71 73 76 82 89 88 78 68 63 68 79 79 77 76 76 78 76 78 74 66 54 50 51 45 42 38 35 30 27 26 27 26 25
79 83 87 86 86 85 88 93 94 94 90 92 86 80 74 76 74 71 66 64 68 76 69 73 74 73 76 74 70 71 67 56 51 69 54 43 40 38 32 28 27 27 27 27
84 77 76 82 82 86 88 72 70 85 89 84 78 75 74 73 74 67 64 64 64 66 70 78 74 66 66 70 74 62 58 55 73 82 72 93 62 38 35 31 30 30 31 29
74 77 87 92 90 86 89 78 72 73 88 94 93 89 81 68 65 64 67 73 66 62 63 64 67 59 63 67 69 63 67 57 57 96 98 97 94 52 36 32 30 31 30 29
90 93 98 76 75 76 82 86 82 75 72 77 84 88 94 94 92 86 74 70 66 65 65 62 59 60 63 68 72 67 91 98 98 98 98 98 97 59 37 33 31 29 29 26
98 100 98 79 78 78 77 69 84 86 80 75 76 80 86 89 95 100 96 94 97 97 95 93 82 75 96 86 81 86 98 98 98 98 97 97 96 95 40 33 28 27 25 22
96 99 98 97 85 54 51 60 82 85 86 82 76 75 76 79 79 90 85 92 97 99 100 100 99 96 99 99 98 98 98 98 98 98 97 97 97 66 37 32 28 25 25 25
98 98 86 76 63 57 53 60 71 71 72 78 82 81 82 77 79 78 84 85 96 98 100 99 100 99 99 99 100 100 99 98 97 98 97 96 83 75 48 32 29 26 25 23
85 87 74 60 60 52 51 60 73 71 76 71 70 81 78 77 75 77 82 85 88 97 98 98 98 100 100 99 100 98 97 98 98 97 97 97 95 56 37 33 30 28 23 23
70 78 65 58 51 48 50 54 73 68 67 70 75 78 75 77 78 79 81 86 92 99 100 100 100 100 100 100 100 98 98 98 98 98 98 97 70 44 39 36 31 26 23 27

GFSNGP_925_rhum_066.txt.gz
RH
72 69 84 88 85 77 96 87 89 66 67 52 47 48 43 49 57 69 76 77 75 76 80 79 76 76 76 77 79 80 83 86 89 95 97 99 99 100 100 99 99 99 98 99
61 68 77 86 78 89 84 80 84 78 82 52 45 40 42 44 54 68 70 74 74 72 74 77 76 78 80 81 82 83 85 89 92 95 99 100 100 100 99 99 99 97 97 100
81 79 68 75 67 71 85 86 82 92 66 53 52 49 45 48 51 61 71 75 73 69 71 70 74 76 82 83 86 89 91 94 94 97 100 100 100 99 100 98 97 96 95 90
85 78 83 52 46 52 65 60 74 71 65 57 55 50 49 47 47 56 64 71 72 68 64 66 71 79 83 88 89 90 93 94 96 99 100 100 100 99 99 95 86 68 64 66
92 95 70 49 62 65 65 60 56 63 58 57 53 53 56 60 59 51 63 72 68 63 63 68 74 80 86 90 92 94 98 97 99 100 100 100 99 100 98 90 69 65 69 68
94 90 91 51 54 53 56 79 52 62 64 65 67 74 71 60 70 72 72 67 68 67 68 73 80 83 89 94 96 98 100 99 100 100 100 99 99 98 97 73 64 62 58 60
89 90 75 54 52 55 78 60 66 66 68 64 78 67 62 76 73 74 75 73 71 72 75 77 83 88 93 96 99 97 98 99 100 100 100 99 99 89 75 64 62 56 46 43
89 94 88 50 60 72 61 64 66 65 64 64 68 75 75 76 80 81 84 86 80 82 84 85 86 90 96 100 96 98 98 98 100 100 98 99 83 71 70 68 61 51 41 35
80 77 52 46 57 56 68 72 63 63 62 60 72 75 80 80 80 80 82 84 82 82 88 89 91 94 100 98 99 100 98 96 97 98 97 78 64 59 58 55 51 45 43 36
65 53 60 54 54 59 62 68 59 59 64 68 66 73 73 76 75 77 82 84 82 85 91 94 93 94 94 98 100 98 97 96 95 94 99 73 62 60 60 57 50 43 35 29
74 63 59 54 59 60 56 66 63 64 65 65 69 72 70 74 75 74 78 80 81 84 86 89 90 91 92 95 100 98 96 93 94 97 100 74 66 55 44 39 36 32 27 26
74 57 57 58 53 57 63 67 72 69 69 67 66 72 69 73 73 74 76 79 83 84 84 84 87 91 91 92 98 99 97 94 98 99 99 83 60 51 44 37 32 31 29 22
72 72 65 62 62 68 72 72 73 74 69 71 72 72 70 76 75 78 78 78 81 81 82 86 92 91 88 89 91 100 100 99 99 99 90 67 55 48 44 40 43 56 37 34
67 76 78 71 76 76 74 76 75 77 78 77 74 75 74 76 74 75 80 81 82 84 86 87 90 92 92 92 95 94 95 93 93 91 64 50 46 45 43 46 46 47 54 57
66 73 76 78 74 75 77 75 77 81 81 82 83 83 84 86 85 82 77 73 78 90 90 90 91 92 92 95 94 92 94 94 93 89 74 49 42 42 44 45 48 47 41 28
90 79 78 80 82 79 77 78 78 84 84 88 88 82 77 76 76 75 76 80 82 88 87 93 93 89 91 92 94 95 96 95 90 90 88 71 48 45 44 46 51 51 44 31
92 88 82 87 86 80 83 88 89 91 88 82 80 79 81 80 82 84 82 83 82 76 77 87 86 87 90 90 93 96 99 98 99 94 88 85 64 50 47 46 48 47 42 33
85 90 90 87 85 86 88 90 92 89 84 86 89 86 81 81 85 80 76 76 74 71 73 77 83 88 90 90 91 96 99 100 100 100 95 90 92 58 49 46 46 45 40 33
91 89 90 94 97 96 98 94 83 92 90 89 85 79 73 72 71 73 72 70 72 76 75 74 74 80 86 91 95 97 99 100 100 100 98 95 99 94 70 51 47 42 41 34
99 98 98 98 99 98 96 99 98 74 82 88 94 93 93 91 85 78 69 78 79 81 78 76 77 77 81 84 88 91 91 92 94 97 100 99 99 98 98 97 92 97 93 88
98 95 95 96 97 99 99 98 94 90 83 83 85 88 89 90 92 96 86 77 87 94 89 77 71 71 78 81 80 87 88 97 98 99 98 98 98 98 98 98 98 97 97 96
98 98 97 91 85 82 88 78 87 94 91 83 77 77 79 82 85 98 97 95 88 95 100 97 94 91 76 70 84 90 86 97 99 98 98 98 98 98 98 98 98 98 97 97
98 100 99 96 86 83 79 58 68 83 84 83 79 78 80 81 91 95 93 79 86 100 100 98 99 98 97 91 93 98 99 99 98 98 98 98 98 98 98 97 98 98 97 97
99 100 99 97 98 75 60 44 52 67 72 74 82 83 82 81 73 89 82 84 86 100 100 100 99 99 99 100 98 98 98 98 98 98 98 98 98 98 98 97 97 97 98 95
82 84 100 99 96 80 66 48 48 54 61 63 62 73 82 80 81 78 82 82 87 90 92 98 99 100 100 100 100 100 100 100 100 99 98 98 98 98 98 98 98 98 96 52
73 85 97 94 96 85 60 52 55 52 60 63 57 59 72 70 75 81 82 82 89 97 100 99 100 100 100 100 100 100 100 100 99 99 98 97 97 97 97 97 97 97 95 80
80 89 86 76 65 68 65 53 52 49 52 59 59 53 67 65 69 72 76 83 91 100 99 99 97 97 98 98 98 98 98 98 100 99 98 98 97 97 97 97 97 97 70 44